When you browse on this site, cookies collect data to enhance your experience and personalize the content and advertising you see.
Visit our Privacy Policy to learn more. By continuing to use the site, you agree to this use of cookies and data.

Hourly Weather Verhnie Gorki

Today, 9 August, Sunday

Time Temperature Precipitation Wind Pressure Humidity
00:00 +15°C° 0 mm 1 mps 743 mmHg 95%
01:00 +15°C° 0 mm 1 mps 742 mmHg 96%
02:00 +15°C° 0 mm 1 mps 742 mmHg 96%
03:00 +15°C° 0 mm 1 mps 742 mmHg 96%
04:00 +15°C° 0 mm 1 mps 742 mmHg 96%
05:00 +15°C° 0 mm 1 mps 742 mmHg 96%
06:00 +18°C° 0 mm 1 mps 742 mmHg 88%
07:00 +19°C° 0 mm 1 mps 742 mmHg 80%
08:00 +20°C° 0 mm 2 mps 742 mmHg 72%
09:00 +23°C° 0 mm 2 mps 742 mmHg 66%
10:00 +24°C° 0 mm 2 mps 742 mmHg 61%
11:00 +26°C° 0 mm 2 mps 742 mmHg 55%
12:00 +25°C° 0.1 mm 2 mps 742 mmHg 57%
13:00 +25°C° 0.1 mm 2 mps 741 mmHg 59%
14:00 +25°C° 0.1 mm 2 mps 741 mmHg 61%
15:00 +25°C° 0.4 mm 2 mps 741 mmHg 67%
16:00 +24°C° 0.4 mm 2 mps 740 mmHg 73%
17:00 +24°C° 0.4 mm 2 mps 740 mmHg 79%
18:00 +21°C° 0.1 mm 2 mps 740 mmHg 84%
19:00 +21°C° 0.1 mm 1 mps 740 mmHg 89%
20:00 +19°C° 0.1 mm 1 mps 740 mmHg 94%
21:00 +19°C° 0 mm 1 mps 740 mmHg 95%
22:00 +18°C° 0 mm 1 mps 740 mmHg 95%
23:00 +16°C° 0 mm 1 mps 740 mmHg 96%

Tomorrow, 10 August, Monday

Time Temperature Precipitation Wind Pressure Humidity
00:00 +16°C° 0 mm 1 mps 740 mmHg 96%
01:00 +16°C° 0 mm 1 mps 740 mmHg 96%
02:00 +16°C° 0 mm 1 mps 740 mmHg 96%
03:00 +16°C° 0 mm 1 mps 740 mmHg 96%
04:00 +15°C° 0 mm 1 mps 740 mmHg 97%
05:00 +15°C° 0 mm 1 mps 740 mmHg 97%
06:00 +18°C° 0 mm 1 mps 740 mmHg 92%
07:00 +20°C° 0 mm 1 mps 740 mmHg 86%
08:00 +22°C° 0 mm 1 mps 740 mmHg 81%
09:00 +23°C° 0.1 mm 2 mps 740 mmHg 72%
10:00 +25°C° 0.1 mm 2 mps 740 mmHg 63%
11:00 +26°C° 0.1 mm 2 mps 740 mmHg 54%
12:00 +27°C° 0.1 mm 2 mps 739 mmHg 53%
13:00 +27°C° 0.1 mm 2 mps 739 mmHg 51%
14:00 +27°C° 0.1 mm 3 mps 739 mmHg 50%
15:00 +26°C° 0.9 mm 2 mps 738 mmHg 62%
16:00 +24°C° 0.9 mm 2 mps 738 mmHg 75%
17:00 +21°C° 0.9 mm 2 mps 738 mmHg 87%
18:00 +20°C° 0.2 mm 2 mps 738 mmHg 90%
19:00 +19°C° 0.2 mm 2 mps 738 mmHg 92%
20:00 +18°C° 0.2 mm 2 mps 738 mmHg 94%
21:00 +16°C° 0 mm 2 mps 739 mmHg 94%
22:00 +15°C° 0 mm 2 mps 739 mmHg 94%
23:00 +14°C° 0 mm 2 mps 739 mmHg 94%

Day after tomorrow, 11 August, Tuesday

Time Temperature Precipitation Wind Pressure Humidity
00:00 +13°C° 0 mm 2 mps 739 mmHg 95%
01:00 +12°C° 0 mm 2 mps 739 mmHg 97%
02:00 +12°C° 0 mm 2 mps 739 mmHg 98%
03:00 +10°C° 0 mm 2 mps 739 mmHg 98%
04:00 +10°C° 0 mm 2 mps 740 mmHg 98%
05:00 +9°C° 0 mm 2 mps 740 mmHg 98%
06:00 +10°C° 0 mm 3 mps 740 mmHg 95%
07:00 +11°C° 0 mm 3 mps 740 mmHg 93%
08:00 +12°C° 0 mm 3 mps 740 mmHg 90%
09:00 +12°C° 0 mm 4 mps 740 mmHg 85%
10:00 +13°C° 0 mm 4 mps 740 mmHg 80%
11:00 +13°C° 0 mm 4 mps 740 mmHg 74%
12:00 +14°C° 0 mm 4 mps 740 mmHg 71%
13:00 +14°C° 0 mm 4 mps 741 mmHg 69%
14:00 +14°C° 0 mm 4 mps 741 mmHg 66%
15:00 +14°C° 0 mm 4 mps 741 mmHg 68%
16:00 +14°C° 0 mm 4 mps 741 mmHg 70%
17:00 +14°C° 0 mm 3 mps 741 mmHg 72%
18:00 +13°C° 0 mm 3 mps 741 mmHg 75%
19:00 +12°C° 0 mm 3 mps 741 mmHg 78%
20:00 +12°C° 0 mm 3 mps 741 mmHg 82%
21:00 +11°C° 0 mm 3 mps 741 mmHg 82%
22:00 +11°C° 0 mm 3 mps 741 mmHg 83%
23:00 +11°C° 0 mm 3 mps 741 mmHg 84%

12 August, Wednesday

Time Temperature Precipitation Wind Pressure Humidity
00:00 +11°C° 0 mm 3 mps 741 mmHg 86%
01:00 +11°C° 0 mm 3 mps 741 mmHg 87%
02:00 +10°C° 0 mm 2 mps 741 mmHg 89%
03:00 +10°C° 0 mm 3 mps 741 mmHg 90%
04:00 +10°C° 0 mm 3 mps 742 mmHg 92%
05:00 +9°C° 0 mm 3 mps 742 mmHg 93%
06:00 +11°C° 0 mm 3 mps 742 mmHg 85%
07:00 +12°C° 0 mm 3 mps 742 mmHg 77%
08:00 +13°C° 0 mm 3 mps 742 mmHg 70%
09:00 +14°C° 0 mm 3 mps 742 mmHg 64%
10:00 +16°C° 0 mm 3 mps 742 mmHg 58%
11:00 +17°C° 0 mm 4 mps 742 mmHg 52%
12:00 +17°C° 0 mm 3 mps 742 mmHg 52%
13:00 +17°C° 0 mm 3 mps 742 mmHg 52%
14:00 +17°C° 0 mm 3 mps 742 mmHg 52%
15:00 +17°C° 0 mm 3 mps 742 mmHg 53%
16:00 +16°C° 0 mm 3 mps 742 mmHg 55%
17:00 +16°C° 0 mm 2 mps 742 mmHg 57%
18:00 +15°C° 0 mm 2 mps 742 mmHg 62%
19:00 +14°C° 0 mm 2 mps 742 mmHg 68%
20:00 +13°C° 0 mm 1 mps 742 mmHg 73%
21:00 +12°C° 0 mm 1 mps 742 mmHg 77%
22:00 +11°C° 0 mm 1 mps 741 mmHg 81%
23:00 +10°C° 0 mm 1 mps 741 mmHg 86%

13 August, Thursday

Time Temperature Precipitation Wind Pressure Humidity
00:00 +9°C° 0 mm 1 mps 741 mmHg 87%
01:00 +9°C° 0 mm 1 mps 741 mmHg 89%
02:00 +9°C° 0 mm 1 mps 741 mmHg 91%
03:00 +9°C° 0 mm 1 mps 740 mmHg 89%
04:00 +9°C° 0 mm 1 mps 740 mmHg 88%
05:00 +9°C° 0 mm 1 mps 740 mmHg 87%
06:00 +10°C° 0 mm 2 mps 740 mmHg 81%
07:00 +12°C° 0 mm 2 mps 740 mmHg 76%
08:00 +13°C° 0 mm 2 mps 739 mmHg 70%
09:00 +13°C° 0.1 mm 2 mps 739 mmHg 74%
10:00 +13°C° 0.1 mm 2 mps 739 mmHg 78%
11:00 +11°C° 0.1 mm 3 mps 738 mmHg 82%
12:00 +12°C° 0.2 mm 3 mps 738 mmHg 85%
13:00 +12°C° 0.2 mm 3 mps 737 mmHg 87%
14:00 +12°C° 0.2 mm 3 mps 737 mmHg 89%
15:00 +12°C° 0.1 mm 3 mps 736 mmHg 88%
16:00 +13°C° 0.1 mm 3 mps 736 mmHg 87%
17:00 +14°C° 0.1 mm 3 mps 736 mmHg 85%
18:00 +13°C° 0 mm 3 mps 735 mmHg 87%
19:00 +13°C° 0 mm 3 mps 735 mmHg 88%
20:00 +13°C° 0 mm 3 mps 735 mmHg 89%
21:00 +12°C° 0.1 mm 3 mps 734 mmHg 92%
22:00 +12°C° 0.1 mm 3 mps 734 mmHg 94%
23:00 +11°C° 0.1 mm 3 mps 734 mmHg 97%

14 August, Friday

Time Temperature Precipitation Wind Pressure Humidity
00:00 +11°C° 0 mm 3 mps 734 mmHg 97%
01:00 +11°C° 0 mm 3 mps 734 mmHg 96%
02:00 +11°C° 0 mm 3 mps 735 mmHg 96%
03:00 +11°C° 0 mm 3 mps 735 mmHg 95%
04:00 +10°C° 0 mm 3 mps 735 mmHg 94%
05:00 +10°C° 0 mm 3 mps 735 mmHg 93%
06:00 +10°C° 0 mm 3 mps 736 mmHg 91%
07:00 +10°C° 0 mm 3 mps 736 mmHg 90%
08:00 +11°C° 0 mm 4 mps 736 mmHg 88%
09:00 +12°C° 0 mm 4 mps 736 mmHg 82%
10:00 +12°C° 0 mm 4 mps 736 mmHg 76%
11:00 +13°C° 0 mm 4 mps 737 mmHg 70%
12:00 +14°C° 0 mm 4 mps 737 mmHg 65%
13:00 +15°C° 0 mm 4 mps 737 mmHg 61%
14:00 +17°C° 0 mm 4 mps 737 mmHg 56%
15:00 +17°C° 0 mm 4 mps 737 mmHg 57%
16:00 +17°C° 0 mm 4 mps 737 mmHg 58%
17:00 +15°C° 0 mm 4 mps 737 mmHg 59%
18:00 +13°C° 0 mm 3 mps 737 mmHg 67%
19:00 +12°C° 0 mm 2 mps 737 mmHg 74%
20:00 +9°C° 0 mm 2 mps 737 mmHg 82%
21:00 +9°C° 0 mm 2 mps 738 mmHg 83%
22:00 +8°C° 0 mm 2 mps 738 mmHg 85%
23:00 +8°C° 0 mm 1 mps 738 mmHg 87%
Show more